• în România
  • Lista ţărilor
  • Pe 7 zile
  • Temperatura apei
  • Hartă satelitară
  • Meteo pe hartă
  • Widget-uri
  • user-avatar
    Intrare

    Meteo pe oră la Prutz

    Astăzi, 19 Ianuarie, Vineri

    Timp Temperatura Precipitaţii Vânt Presiune Umiditate
    00:00 -1°C° 0,2 mm 3 m/s 625 mmHg 88%
    01:00 -1°C° 0 mm 3 m/s 625 mmHg 90%
    02:00 -1°C° 0,7 mm 3 m/s 625 mmHg 91%
    03:00 -1°C° 0,7 mm 2 m/s 624 mmHg 91%
    04:00 -1°C° 0,7 mm 2 m/s 624 mmHg 92%
    05:00 -2°C° 1,4 mm 2 m/s 624 mmHg 92%
    06:00 -2°C° 1,4 mm 2 m/s 624 mmHg 93%
    07:00 -2°C° 0 mm 2 m/s 625 mmHg 94%
    08:00 -2°C° 1,2 mm 3 m/s 625 mmHg 94%
    09:00 -4°C° 1,2 mm 3 m/s 625 mmHg 94%
    10:00 -4°C° 1,2 mm 3 m/s 626 mmHg 93%
    11:00 -4°C° 0,4 mm 3 m/s 626 mmHg 91%
    12:00 -4°C° 0,4 mm 3 m/s 626 mmHg 88%
    13:00 -4°C° 0,4 mm 3 m/s 626 mmHg 85%
    14:00 -5°C° 0,2 mm 3 m/s 626 mmHg 86%
    15:00 -4°C° 0,2 mm 2 m/s 626 mmHg 87%
    16:00 -5°C° 0,2 mm 2 m/s 626 mmHg 89%
    17:00 -6°C° 0,3 mm 2 m/s 626 mmHg 88%
    18:00 -7°C° 0,3 mm 2 m/s 626 mmHg 88%
    19:00 -8°C° 0,3 mm 2 m/s 626 mmHg 88%
    20:00 -8°C° 0,2 mm 2 m/s 626 mmHg 86%
    21:00 -8°C° 0,2 mm 2 m/s 626 mmHg 84%
    22:00 -8°C° 0,2 mm 2 m/s 626 mmHg 83%
    23:00 -8°C° 0,4 mm 2 m/s 626 mmHg 85%

    Mâine, 20 Ianuarie, Sâmbătă

    Timp Temperatura Precipitaţii Vânt Presiune Umiditate
    00:00 -8°C° 0,4 mm 2 m/s 627 mmHg 87%
    01:00 -8°C° 0,4 mm 2 m/s 627 mmHg 90%
    02:00 -8°C° 0,3 mm 2 m/s 627 mmHg 91%
    03:00 -8°C° 0,3 mm 2 m/s 627 mmHg 92%
    04:00 -8°C° 0,3 mm 2 m/s 627 mmHg 93%
    05:00 -8°C° 0,1 mm 2 m/s 627 mmHg 92%
    06:00 -9°C° 0,1 mm 2 m/s 627 mmHg 90%
    07:00 -9°C° 0,1 mm 2 m/s 626 mmHg 89%
    08:00 -9°C° 0,1 mm 2 m/s 626 mmHg 85%
    09:00 -8°C° 0,1 mm 2 m/s 626 mmHg 82%
    10:00 -7°C° 0,1 mm 2 m/s 626 mmHg 78%
    11:00 -6°C° 0 mm 2 m/s 626 mmHg 75%
    12:00 -5°C° 0 mm 2 m/s 626 mmHg 72%
    13:00 -4°C° 0 mm 2 m/s 626 mmHg 69%
    14:00 -4°C° 0 mm 2 m/s 625 mmHg 74%
    15:00 -4°C° 0 mm 2 m/s 624 mmHg 78%
    16:00 -4°C° 0 mm 2 m/s 623 mmHg 83%
    17:00 -5°C° 0,6 mm 2 m/s 623 mmHg 86%
    18:00 -7°C° 0,6 mm 3 m/s 622 mmHg 90%
    19:00 -7°C° 0,6 mm 3 m/s 622 mmHg 93%
    20:00 -7°C° 1,3 mm 3 m/s 622 mmHg 93%
    21:00 -6°C° 1,3 mm 2 m/s 622 mmHg 94%
    22:00 -6°C° 1,3 mm 2 m/s 622 mmHg 94%
    23:00 -6°C° 1 mm 2 m/s 623 mmHg 95%

    Poimâine, 21 Ianuarie, Duminică

    Timp Temperatura Precipitaţii Vânt Presiune Umiditate
    00:00 -5°C° 1 mm 2 m/s 623 mmHg 95%
    01:00 -5°C° 1 mm 2 m/s 623 mmHg 96%
    02:00 -4°C° 1,2 mm 2 m/s 623 mmHg 96%
    03:00 -4°C° 1,2 mm 2 m/s 623 mmHg 96%
    04:00 -4°C° 1,2 mm 2 m/s 624 mmHg 96%
    05:00 -4°C° 1,4 mm 2 m/s 624 mmHg 96%
    06:00 -3°C° 1,4 mm 2 m/s 624 mmHg 96%
    07:00 -3°C° 1,4 mm 2 m/s 624 mmHg 96%
    08:00 -3°C° 1,8 mm 2 m/s 625 mmHg 96%
    09:00 -3°C° 1,8 mm 2 m/s 626 mmHg 96%
    10:00 -2°C° 1,8 mm 3 m/s 626 mmHg 96%
    11:00 -2°C° 1,9 mm 2 m/s 626 mmHg 96%
    12:00 -2°C° 1,9 mm 2 m/s 626 mmHg 96%
    13:00 -2°C° 1,9 mm 2 m/s 626 mmHg 96%
    14:00 -3°C° 1,8 mm 2 m/s 627 mmHg 96%
    15:00 -1°C° 1,8 mm 1 m/s 627 mmHg 96%
    16:00 -1°C° 1,8 mm 1 m/s 627 mmHg 96%
    17:00 -1°C° 1,9 mm 1 m/s 627 mmHg 95%
    18:00 -1°C° 1,9 mm 1 m/s 628 mmHg 95%
    19:00 -1°C° 1,9 mm 1 m/s 628 mmHg 95%
    20:00 -1°C° 2,4 mm 1 m/s 628 mmHg 95%
    21:00 0°C° 2,4 mm 1 m/s 628 mmHg 95%
    22:00 0°C° 2,4 mm 1 m/s 628 mmHg 96%
    23:00 -2°C° 2,9 mm 2 m/s 629 mmHg 96%

    22 Ianuarie, Luni

    Timp Temperatura Precipitaţii Vânt Presiune Umiditate
    00:00 -1°C° 2,9 mm 2 m/s 629 mmHg 96%
    01:00 -1°C° 2,9 mm 2 m/s 629 mmHg 96%
    02:00 +1°C° 2,8 mm 2 m/s 629 mmHg 96%
    03:00 +1°C° 2,8 mm 2 m/s 629 mmHg 96%
    04:00 +1°C° 2,8 mm 2 m/s 629 mmHg 96%
    05:00 +1°C° 2,7 mm 2 m/s 629 mmHg 96%
    06:00 +1°C° 2,7 mm 2 m/s 629 mmHg 96%
    07:00 +2°C° 2,7 mm 2 m/s 630 mmHg 95%
    08:00 +2°C° 2 mm 2 m/s 630 mmHg 95%
    09:00 +2°C° 2 mm 2 m/s 630 mmHg 95%
    10:00 +2°C° 2 mm 2 m/s 630 mmHg 95%
    11:00 +3°C° 2,1 mm 2 m/s 630 mmHg 96%
    12:00 +3°C° 2,1 mm 2 m/s 630 mmHg 97%
    13:00 +3°C° 2,1 mm 2 m/s 630 mmHg 98%
    14:00 +3°C° 1 mm 2 m/s 630 mmHg 98%
    15:00 +3°C° 1 mm 2 m/s 630 mmHg 97%
    16:00 +3°C° 1 mm 2 m/s 630 mmHg 97%
    17:00 +2°C° 0,1 mm 2 m/s 630 mmHg 96%
    18:00 +2°C° 0,1 mm 2 m/s 630 mmHg 96%
    19:00 +1°C° 0,1 mm 2 m/s 630 mmHg 95%
    20:00 +1°C° 0,5 mm 2 m/s 630 mmHg 95%
    21:00 +1°C° 0,5 mm 2 m/s 631 mmHg 95%
    22:00 +1°C° 0,5 mm 2 m/s 631 mmHg 95%
    23:00 +1°C° 0,6 mm 2 m/s 631 mmHg 95%

    23 Ianuarie, Marţi

    Timp Temperatura Precipitaţii Vânt Presiune Umiditate
    00:00 +1°C° 0,6 mm 2 m/s 631 mmHg 95%
    01:00 +1°C° 0,6 mm 2 m/s 631 mmHg 94%
    02:00 +1°C° 1,1 mm 2 m/s 632 mmHg 95%
    03:00 +1°C° 1,1 mm 2 m/s 632 mmHg 95%
    04:00 +1°C° 1,1 mm 2 m/s 633 mmHg 95%
    05:00 +1°C° 0,8 mm 2 m/s 633 mmHg 95%
    06:00 +1°C° 0,8 mm 2 m/s 634 mmHg 96%
    07:00 +1°C° 0,8 mm 2 m/s 635 mmHg 96%
    08:00 +1°C° 0,1 mm 2 m/s 635 mmHg 96%
    09:00 +1°C° 0,1 mm 2 m/s 636 mmHg 97%
    10:00 +2°C° 0,1 mm 2 m/s 636 mmHg 97%
    11:00 +2°C° 0 mm 2 m/s 636 mmHg 98%
    12:00 +2°C° 0 mm 2 m/s 637 mmHg 98%
    13:00 +2°C° 0 mm 2 m/s 637 mmHg 99%
    14:00 +3°C° 0 mm 1 m/s 637 mmHg 97%
    15:00 +3°C° 0 mm 1 m/s 637 mmHg 96%
    16:00 +2°C° 0 mm 1 m/s 637 mmHg 95%
    17:00 +1°C° 0 mm 1 m/s 637 mmHg 90%
    18:00 0°C° 0 mm 1 m/s 637 mmHg 86%
    19:00 -2°C° 0 mm 1 m/s 637 mmHg 82%
    20:00 -2°C° 0 mm 1 m/s 637 mmHg 76%
    21:00 -2°C° 0 mm 1 m/s 638 mmHg 71%
    22:00 -2°C° 0 mm 1 m/s 638 mmHg 65%
    23:00 -2°C° 0 mm 1 m/s 638 mmHg 63%

    24 Ianuarie, Miercuri

    Timp Temperatura Precipitaţii Vânt Presiune Umiditate
    00:00 -4°C° 0 mm 2 m/s 638 mmHg 60%
    01:00 -4°C° 0 mm 2 m/s 638 mmHg 58%
    02:00 -4°C° 0 mm 2 m/s 638 mmHg 57%
    03:00 -4°C° 0 mm 2 m/s 638 mmHg 57%
    04:00 -4°C° 0 mm 2 m/s 638 mmHg 57%
    05:00 -4°C° 0 mm 2 m/s 638 mmHg 57%
    06:00 -4°C° 0 mm 2 m/s 638 mmHg 57%
    07:00 -4°C° 0 mm 2 m/s 638 mmHg 57%
    08:00 -2°C° 0 mm 2 m/s 639 mmHg 62%
    09:00 -1°C° 0 mm 2 m/s 639 mmHg 66%
    10:00 +2°C° 0 mm 2 m/s 640 mmHg 71%
    11:00 +2°C° 0 mm 2 m/s 640 mmHg 78%
    12:00 +3°C° 0 mm 2 m/s 639 mmHg 86%
    13:00 +4°C° 0 mm 2 m/s 639 mmHg 94%
    14:00 +4°C° 0 mm 2 m/s 639 mmHg 91%
    15:00 +3°C° 0 mm 2 m/s 639 mmHg 88%
    16:00 +3°C° 0 mm 2 m/s 639 mmHg 84%
    17:00 +2°C° 0 mm 2 m/s 638 mmHg 79%
    18:00 -1°C° 0 mm 2 m/s 638 mmHg 75%
    19:00 -2°C° 0 mm 2 m/s 638 mmHg 70%
    20:00 -2°C° 0 mm 2 m/s 638 mmHg 68%
    21:00 -2°C° 0 mm 2 m/s 638 mmHg 66%
    22:00 -3°C° 0 mm 2 m/s 638 mmHg 64%
    23:00 -3°C° 0 mm 2 m/s 637 mmHg 64%
    Arată mai mult